Regional Weather Roundup
Issued by NWS

Home | Current Version | Previous Version | Graphics & Text | Print | Product List | Glossary On
Versions: 1 2 3 4 5 6 7 8 9 10 11 12 13 14 15 16 17 18 19 20 21 22 23 24 25 26 27 28 29 30 31 32 33 34 35 36 37 38 39 40 41 42 43 44 45 46 47 48
000
ASUS45 KBOI 301010
RWRID
WEATHER ROUNDUP FOR IDAHO
NATIONAL WEATHER SERVICE BOISE ID
400 AM MDT TUE SEP 30 2014

NOTE: "FAIR" INDICATES FEW OR NO CLOUDS BELOW 12000 FEET
WITH NO SIGNIFICANT WEATHER AND/OR OBSTRUCTIONS TO VISIBILITY

IDZ012-014-301100-
SOUTHWEST IDAHO


CITY           SKY/WX    TMP DP  RH WIND       PRES   REMARKS
BOISE          MOCLDY    52  50  93 CALM      29.92F
CALDWELL       CLOUDY    52  45  76 CALM      29.95S
MOUNTAIN HOME  DRIZZLE   52  52 100 NE2       29.91F
$$

IDZ016-017-301100-
SOUTHCENTRAL IDAHO


CITY           SKY/WX    TMP DP  RH WIND       PRES   REMARKS
BURLEY         CLOUDY    51  47  86 SW5       29.94F
JEROME         CLOUDY    50  48  93 S5        29.95F
TWIN FALLS     CLOUDY    52  44  74 S8        29.95F
$$

IDZ019>023-301100-
SOUTHEAST IDAHO


CITY           SKY/WX    TMP DP  RH WIND       PRES   REMARKS
IDAHO FALLS    CLOUDY    49  46  90 SW10      29.95S
POCATELLO      CLOUDY    50  49  96 SW9       29.96F
REXBURG        CLOUDY    48  45  89 SW7       29.94F
$$

IDZ006-010-011-018-031-032-301100-
CENTRAL IDAHO MOUNTAINS


CITY           SKY/WX    TMP DP  RH WIND       PRES   REMARKS
MCCALL         LGT RAIN  46  45  96 S5        29.92F
HAILEY         CLOUDY    45  45 100 NW9       29.96F
STANLEY          N/A     40  38  93 CALM      29.99F
SALMON         CLOUDY    50  46  87 CALM      29.89F
CHALLIS        CLOUDY    48  46  93 CALM      29.93F
$$

IDZ002-004-006-007-026-301100-
NORTHERN IDAHO


CITY           SKY/WX    TMP DP  RH WIND       PRES   REMARKS
LEWISTON       LGT RAIN  57  56  96 S5        29.85S
LOWELL           N/A     55  54  96 SW3       29.86F
COEUR D`ALENE  CLOUDY    55  50  82 SW12      29.78S
MULLAN PASS    RAIN      42  42 100 VRB5      29.85F VSB 1
$$


USA.gov is the U.S. government's official web portal to all federal, state and local government web resources and services.